Location: Newark
(27.9675°N, 86.8869°E)
Time: 04:58:07
(UTC+00:00)

S-56A Canister/Altair - All Passes

Search period start: 18 October 2019 00:00
Search period end: 28 October 2019 00:00
Orbit: 633 x 2499 km, 38.9° (Epoch: 17 October)

Date Brightness Start Highest point End Pass type
(mag) Time Alt. Az. Time Alt. Az. Time Alt. Az.
18 Oct - 01:26:05 10° WNW 01:36:19 61° NNE 01:50:34 10° E daylight
18 Oct - 03:30:47 10° WNW 03:43:10 72° SW 03:58:18 10° SE daylight
18 Oct - 05:38:06 10° W 05:49:13 28° SW 06:00:55 10° S daylight
18 Oct - 18:42:26 10° SSW 18:46:34 27° SE 18:51:49 10° E night (unlit)
18 Oct - 20:44:26 10° WSW 20:50:05 67° NNW 20:58:39 10° ENE visible
18 Oct - 22:48:54 10° WNW 22:55:59 42° N 23:06:29 10° ENE visible
19 Oct - 00:53:22 10° WNW 01:02:52 57° NNE 01:16:28 10° E daylight
19 Oct - 02:57:48 10° WNW 03:09:37 78° SSW 03:24:46 10° SE daylight
19 Oct - 05:04:24 10° W 05:15:47 32° SW 05:28:15 10° SSE daylight
19 Oct - 18:10:37 10° S 18:14:06 20° SE 18:18:16 10° E night (unlit)
19 Oct - 20:12:00 10° WSW 20:17:19 74° NNW 20:25:12 10° ENE visible
19 Oct - 22:16:19 10° WNW 22:22:51 41° N 22:32:31 10° ENE visible
20 Oct - 00:20:43 10° WNW 00:29:31 53° NNE 00:42:19 10° E daylight
20 Oct - 02:24:55 10° WNW 02:36:06 85° SSW 02:51:06 10° SE daylight
20 Oct - 04:30:53 10° WNW 04:42:20 36° SW 04:55:23 10° SSE daylight
20 Oct - 17:39:02 10° SSE 17:41:39 15° SE 17:44:33 10° E night (unlit)
20 Oct - 19:39:35 10° WSW 19:44:37 84° NNW 19:51:51 10° ENE visible
20 Oct - 21:43:46 10° WNW 21:49:47 40° N 21:58:41 10° ENE visible
20 Oct - 23:48:07 10° WNW 23:56:13 49° NNE 00:08:11 10° E visible
21 Oct - 01:52:08 10° WNW 02:02:39 89° NNE 02:17:20 10° ESE daylight
21 Oct - 03:57:33 10° WNW 04:08:53 41° SW 04:22:22 10° SSE daylight
21 Oct - 17:08:20 10° SE 17:09:11 10° SE 17:10:02 10° ESE night (unlit)
21 Oct - 19:07:13 10° SW 19:12:00 83° SSE 19:18:35 10° ENE visible
21 Oct - 21:11:13 10° WNW 21:16:49 40° N 21:24:58 10° ENE visible
21 Oct - 23:15:34 10° WNW 23:23:00 45° NNE 23:34:03 10° E visible
22 Oct - 01:19:26 10° WNW 01:29:17 82° NNE 01:43:29 10° ESE daylight
22 Oct - 03:24:23 10° WNW 03:35:26 45° SW 03:49:12 10° SSE daylight
22 Oct - 05:36:17 10° WSW 05:41:19 13° SW 05:46:33 10° SSW daylight
22 Oct - 18:34:52 10° SW 18:39:26 68° SSE 18:45:26 10° ENE night (unlit)
22 Oct - 20:38:41 10° W 20:43:55 40° N 20:51:23 10° ENE visible
22 Oct - 22:43:03 10° WNW 22:49:52 41° NNE 22:59:57 10° E visible
23 Oct - 00:46:47 10° WNW 00:55:58 76° NNE 01:09:33 10° ESE daylight
23 Oct - 02:51:20 10° WNW 03:02:00 50° SW 03:15:54 10° SSE daylight
23 Oct - 05:01:10 10° WSW 05:07:57 15° SW 05:15:14 10° SSW daylight
23 Oct - 18:02:33 10° SW 18:06:56 54° SE 18:12:20 10° ENE night (unlit)
23 Oct - 20:06:10 10° W 20:11:04 41° NNW 20:17:56 10° NE visible
23 Oct - 22:10:33 10° WNW 22:16:48 38° N 22:25:56 10° ENE visible
24 Oct - 00:14:12 10° WNW 00:22:44 69° NNE 00:35:35 10° ESE daylight
24 Oct - 02:18:25 10° WNW 02:28:38 55° SW 02:42:29 10° SE daylight
24 Oct - 04:26:50 10° W 04:34:35 18° SW 04:43:13 10° S daylight
24 Oct - 17:30:16 10° SW 17:34:27 42° SE 17:39:18 10° ENE night (unlit)
24 Oct - 19:33:38 10° W 19:38:18 43° NNW 19:44:38 10° NE visible
24 Oct - 21:38:05 10° WNW 21:43:48 35° N 21:52:01 10° ENE visible
24 Oct - 23:41:41 10° WNW 23:49:34 63° NNE 00:01:34 10° ESE visible
25 Oct - 01:45:36 10° WNW 01:55:17 60° SW 02:08:58 10° SE daylight
25 Oct - 03:52:56 10° W 04:01:14 21° SW 04:10:48 10° S daylight
25 Oct - 16:58:00 10° SSW 17:01:59 33° SE 17:06:19 10° ENE night (unlit)
25 Oct - 19:01:06 10° W 19:05:36 46° NNW 19:11:28 10° NE night (unlit)
25 Oct - 21:05:37 10° WNW 21:10:51 33° N 21:18:13 10° ENE visible
25 Oct - 23:09:13 10° NW 23:16:29 57° NNE 23:27:34 10° E visible
26 Oct - 01:12:53 10° WNW 01:22:01 66° SW 01:35:23 10° SE daylight
26 Oct - 03:19:21 10° W 03:27:53 24° SW 03:38:08 10° S daylight
26 Oct - 16:25:48 10° SSW 16:29:31 26° SE 16:33:19 10° E night (unlit)
26 Oct - 18:28:32 10° W 18:32:56 52° NNW 18:38:26 10° NE night (unlit)
26 Oct - 20:33:09 10° WNW 20:37:58 31° N 20:44:33 10° ENE visible
26 Oct - 22:36:47 10° NW 22:43:28 50° NNE 22:53:35 10° E visible
27 Oct - 00:40:14 10° WNW 00:48:49 72° SSW 01:01:42 10° SE daylight
27 Oct - 02:46:01 10° W 02:54:34 26° SW 03:05:16 10° S daylight
27 Oct - 15:53:37 10° S 15:57:01 20° SE 16:00:19 10° E night (unlit)
27 Oct - 17:55:58 10° WSW 18:00:20 60° NNW 18:05:31 10° NE night (unlit)
27 Oct - 20:00:39 10° WNW 20:05:08 29° N 20:11:02 10° ENE visible
27 Oct - 22:04:23 10° NW 22:10:31 45° NNE 22:19:39 10° E visible
